Location: Powder Track
(41.8531°N, 72.3584°W)
Time: 02:17:49
(UTC+00:00)

Transit 2A Rocket - All Passes

Search period start: 06 August 2021 00:00
Search period end: 16 August 2021 00:00
Orbit: 589 x 914 km, 66.7° (Epoch: 05 August)

Date Brightness Start Highest point End Pass type
(mag) Time Alt. Az. Time Alt. Az. Time Alt. Az.
06 Aug - 00:42:25 10° N 00:45:34 15° NE 00:48:50 10° ENE visible
06 Aug - 02:23:28 10° NNW 02:29:05 70° ENE 02:35:04 10° SE visible
06 Aug - 04:07:17 10° WNW 04:11:14 19° WSW 04:15:17 10° SSW visible
06 Aug - 16:59:14 10° S 17:03:23 43° ESE 17:07:52 10° NE daylight
06 Aug - 18:42:30 10° W 18:46:10 24° NW 18:50:06 10° N daylight
07 Aug - 00:01:38 10° NNE 00:02:22 10° NNE 00:03:06 10° NE daylight
07 Aug - 01:41:00 10° NNW 01:46:21 44° NE 01:52:01 10° SE visible
07 Aug - 03:23:50 10° NW 03:28:50 32° WSW 03:34:04 10° S visible
07 Aug - 16:17:31 10° SSE 16:21:00 23° ESE 16:24:41 10° NE daylight
07 Aug - 17:59:04 10° WSW 18:03:15 38° NW 18:07:49 10° NNE daylight
08 Aug - 00:58:40 10° N 01:03:29 29° NE 01:08:33 10° ESE visible
08 Aug - 02:40:49 10° NW 02:46:20 53° WSW 02:52:09 10° S visible
08 Aug - 15:36:58 10° SE 15:38:44 12° ESE 15:40:34 10° E daylight
08 Aug - 17:16:05 10° SW 17:20:30 68° WNW 17:25:21 10° NNE daylight
08 Aug - 19:02:21 10° WNW 19:04:09 12° NW 19:05:59 10° NNW daylight
09 Aug - 00:16:31 10° N 00:20:30 20° NE 00:24:39 10° E daylight
09 Aug - 01:58:03 10° NNW 02:03:45 86° WSW 02:09:47 10° SSE visible
09 Aug - 03:43:01 10° WNW 03:45:39 13° WSW 03:48:21 10° SW visible
09 Aug - 16:33:31 10° SSW 16:37:54 65° ESE 16:42:39 10° NE daylight
09 Aug - 18:17:50 10° W 18:21:01 18° NW 18:24:23 10° N daylight
09 Aug - 23:34:44 10° N 23:37:23 13° NE 23:40:06 10° ENE daylight
10 Aug - 01:15:29 10° NNW 01:21:04 60° ENE 01:27:00 10° SE visible
10 Aug - 02:58:54 10° WNW 03:03:20 23° WSW 03:07:56 10° SSW visible
10 Aug - 15:51:25 10° S 15:55:25 34° ESE 15:59:44 10° NE daylight
10 Aug - 17:34:06 10° WSW 17:38:01 28° NW 17:42:15 10° NNE daylight
11 Aug - 00:33:03 10° NNW 00:38:17 38° NE 00:43:48 10° ESE visible
11 Aug - 02:15:38 10° NW 02:20:54 38° WSW 02:26:25 10° S visible
11 Aug - 15:10:00 10° SSE 15:13:05 19° ESE 15:16:21 10° ENE daylight
11 Aug - 16:50:50 10° SW 16:55:10 47° NW 16:59:54 10° NNE daylight
11 Aug - 23:50:46 10° N 23:55:22 25° NE 00:00:12 10° E daylight
12 Aug - 01:32:43 10° NW 01:38:22 64° WSW 01:44:20 10° SSE visible
12 Aug - 16:08:00 10° SSW 16:12:27 85° WNW 16:17:21 10° NNE daylight
12 Aug - 17:53:27 10° WNW 17:55:55 14° NW 17:58:31 10° N daylight
12 Aug - 23:08:42 10° N 23:12:20 17° NE 23:16:06 10° E daylight
13 Aug - 00:50:02 10° NNW 00:55:45 81° ENE 01:01:48 10° SSE visible
13 Aug - 02:34:16 10° WNW 02:37:47 17° WSW 02:41:23 10° SW visible
13 Aug - 15:25:35 10° S 15:29:54 52° ESE 15:34:36 10° NE daylight
13 Aug - 17:09:18 10° W 17:12:51 21° NW 17:16:37 10° N daylight
13 Aug - 22:27:11 10° NNE 22:29:10 12° NE 22:31:12 10° NE daylight
14 Aug - 00:07:30 10° NNW 00:13:02 51° NE 00:18:52 10° SE daylight
14 Aug - 01:50:35 10° NW 01:55:25 28° WSW 02:00:27 10° SSW visible
14 Aug - 14:43:41 10° SSE 14:47:29 28° ESE 14:51:32 10° NE daylight
14 Aug - 16:25:45 10° WSW 16:29:54 34° NW 16:34:23 10° NNE daylight
14 Aug - 23:25:07 10° NNW 23:30:12 33° NE 23:35:32 10° ESE daylight
15 Aug - 01:07:29 10° NW 01:12:58 46° WSW 01:18:41 10° S visible
15 Aug - 14:02:37 10° SE 14:05:11 15° ESE 14:07:51 10° ENE daylight
15 Aug - 15:42:39 10° SW 15:47:05 58° NW 15:51:58 10° NNE daylight
15 Aug - 17:29:37 10° NW 17:30:54 11° NNW 17:32:12 10° NNW daylight
15 Aug - 22:42:54 10° N 22:47:15 22° NE 22:51:46 10° E daylight
